Location: *
(43.9905°S, 176.4941°W)
Time: 21:25:57
(UTC+00:00)

ALOS 2 - Pass Details

Date: 08 December 2019
Orbit: 630 x 632 km, 97.9° (Epoch: 22 January)

Event Time Altitude Azimuth Distance (km) Brightness Sun altitude
Rises 11:44:00 0° 162° (SSE) 2,965 7.3 -23.3°
Reaches altitude 10° 11:46:17 10° 156° (SSE) 2,048 6.1 -23.3°
Maximum altitude 11:50:37 48° 81° (E) 840 3.1 -23.2°
Enters shadow 11:50:50 48° 71° (ENE) 845 3.0 -23.2°
